Location: Bazinghen
(50.8246°N, 1.6616°E)
Time: 22:34:44
(UTC+00:00)

Cosmos 1606 Rocket - Pass Details

Date: 09 April 2020
Orbit: 602 x 633 km, 82.5° (Epoch: 26 May)

Event Time Altitude Azimuth Distance (km) Brightness Sun altitude
Rises 19:26:43 0° 189° (S) 2,900 6.9 -7.9°
Reaches altitude 10° 19:28:55 10° 189° (S) 2,002 6.0 -8.2°
Maximum altitude 19:33:23 89° 274° (W) 639 3.6 -8.8°
Drops below altitude 10° 19:37:54 10° 10° (N) 2,029 6.4 -9.5°
Sets 19:40:09 0° 11° (N) 2,943 7.2 -9.8°
